Petersburg, WV

8:44 PM EDT on May 26, 2017 (GMT -0400)
Petersburg

Weather History for KW99 - May, 2013

Change the Weather History Date:

Saturday, May 25, 2013

  Actual Average (KEKN) Record (KEKN)
Temperature  
Mean Temperature 48 °F -  
Max Temperature 62 °F 72 °F 90 °F (1914)
Min Temperature 34 °F 48 °F 30 °F (1956)
Degree Days  
Heating Degree Days 17    
Moisture  
Dew Point 35 °F    
Average Humidity 59    
Maximum Humidity 93    
Minimum Humidity 37    
Precipitation  
Precipitation 0.00 in - - ()
Sea Level Pressure  
Sea Level Pressure 30.24 in    
Wind  
Wind Speed 6 mph (NW)    
Max Wind Speed 18 mph    
Max Gust Speed 28 mph    
Visibility 10 miles    
Events      
Averages and records for this station are not official NWS values.
T = Trace of Precipitation, MM = Missing Value Source: NWS Daily Summary

Daily Weather History Graph

Daily Weather History Graph

Search for Another Location

Airport or City:

Trip Planner

Search our weather history database for the weather conditions in past years. The results will help you decide how hot, cold, wet, or windy it might be!

Date:

Astronomy

May. 25, 2013 Rise Set
Actual Time 5:56 AM EDT 8:31 PM EDT
Civil Twilight 5:25 AM EDT 9:02 PM EDT
Nautical Twilight 4:46 AM EDT 9:40 PM EDT
Astronomical Twilight 4:03 AM EDT 10:24 PM EDT
Moon 9:17 PM EDT (5/25) 6:21 AM EDT (5/25)
Length of Visible Light 15h 37m
Length of Day
14h 35m
Full, 100% of the Moon is Illuminated
May 25
Full
May 31
Last Quarter
Jun 8
New
Jun 16
First Quarter
Jun 23
Full

Hourly Weather History & Observations

Time (EDT) Temp. Windchill Dew Point Humidity Pressure Visibility Wind Dir Wind Speed Gust Speed Precip Events Conditions
12:15 AM 41.4 °F 38.4 °F 31.1 °F 67% 30.27 in 10.0 mi North 4.6 mph - N/A   Scattered Clouds
12:35 AM 40.1 °F 36.9 °F 31.5 °F 71% 30.27 in 10.0 mi North 4.6 mph - N/A   Clear
12:55 AM 40.1 °F 35.3 °F 30.7 °F 69% 30.27 in 10.0 mi North 6.9 mph - N/A   Clear
1:15 AM 40.8 °F 36.9 °F 30.0 °F 65% 30.26 in 10.0 mi North 5.8 mph - N/A   Clear
1:35 AM 40.3 °F 37.1 °F 30.0 °F 67% 30.25 in 10.0 mi NNW 4.6 mph - N/A   Clear
1:55 AM 40.8 °F 37.8 °F 30.4 °F 66% 30.25 in 10.0 mi NNW 4.6 mph - N/A   Clear
2:15 AM 40.6 °F 38.6 °F 31.1 °F 69% 30.25 in 10.0 mi NNE 3.5 mph - N/A   Clear
2:35 AM 39.6 °F - 32.0 °F 74% 30.25 in 10.0 mi Calm Calm - N/A   Clear
2:55 AM 40.3 °F 36.3 °F 32.0 °F 72% 30.25 in 10.0 mi NNE 5.8 mph - N/A   Clear
3:15 AM 38.7 °F - 31.8 °F 76% 30.26 in 10.0 mi Calm Calm - N/A   Clear
3:35 AM 37.6 °F - 32.2 °F 81% 30.26 in 10.0 mi Calm Calm - N/A   Clear
3:55 AM 36.7 °F - 32.0 °F 83% 30.26 in 10.0 mi Calm Calm - N/A   Clear
4:15 AM 36.0 °F 33.3 °F 33.1 °F 89% 30.26 in 10.0 mi WNW 3.5 mph - N/A   Clear
4:35 AM 34.7 °F 29.6 °F 32.0 °F 90% 30.27 in 10.0 mi West 5.8 mph - N/A   Clear
4:55 AM 34.2 °F - 32.0 °F 92% 30.26 in 10.0 mi Calm Calm - N/A   Clear
5:15 AM 34.7 °F - 32.4 °F 91% 30.27 in 10.0 mi Calm Calm - N/A   Clear
5:35 AM 34.5 °F 31.6 °F 32.0 °F 90% 30.27 in 10.0 mi NW 3.5 mph - N/A   Clear
5:55 AM 34.3 °F 27.7 °F 31.1 °F 88% 30.27 in 10.0 mi West 8.1 mph - N/A   Clear
6:15 AM 34.2 °F - 32.0 °F 92% 30.28 in 10.0 mi Calm Calm - N/A   Clear
6:35 AM 34.5 °F - 32.2 °F 91% 30.29 in 10.0 mi Calm Calm - N/A   Clear
6:55 AM 36.0 °F - 34.0 °F 93% 30.29 in 7.0 mi Calm Calm - N/A   Clear
7:15 AM 37.4 °F 34.9 °F 35.6 °F 93% 30.29 in 10.0 mi SSE 3.5 mph - N/A   Clear
7:35 AM 39.2 °F - 35.2 °F 86% 30.29 in 10.0 mi Calm Calm - N/A   Clear
7:55 AM 41.4 °F - 36.1 °F 82% 30.29 in 10.0 mi Calm Calm - N/A   Clear
8:15 AM 43.5 °F - 35.6 °F 74% 30.29 in 10.0 mi Calm Calm - N/A   Clear
8:35 AM 45.5 °F - 35.1 °F 67% 30.28 in 10.0 mi Calm Calm - N/A   Clear
8:55 AM 47.5 °F - 33.8 °F 59% 30.27 in 10.0 mi West 4.6 mph - N/A   Clear
9:15 AM 50.2 °F - 34.0 °F 54% 30.26 in 10.0 mi North 4.6 mph - N/A   Clear
9:35 AM 50.4 °F - 34.5 °F 55% 30.25 in 10.0 mi NNE 5.8 mph - N/A   Clear
9:55 AM 50.7 °F - 33.6 °F 52% 30.25 in 10.0 mi ENE 4.6 mph - N/A   Clear
10:15 AM 52.7 °F - 35.6 °F 52% 30.25 in 10.0 mi SW 8.1 mph - N/A   Clear
10:35 AM 54.3 °F - 34.2 °F 47% 30.25 in 10.0 mi NE 4.6 mph - N/A   Clear
10:55 AM 55.6 °F - 34.3 °F 45% 30.25 in 10.0 mi North 12.7 mph 16.1 mph N/A   Clear
11:15 AM 56.1 °F - 33.8 °F 43% 30.26 in 10.0 mi NNW 11.5 mph 17.3 mph N/A   Clear
11:35 AM 56.7 °F - 35.6 °F 45% 30.26 in 10.0 mi NW 16.1 mph 24.2 mph N/A   Clear
11:55 AM 57.4 °F - 36.0 °F 45% 30.27 in 10.0 mi NW 13.8 mph 24.2 mph N/A   Clear
12:15 PM 57.6 °F - 36.5 °F 45% 30.27 in 10.0 mi NW 10.4 mph 23.0 mph N/A   Clear
12:35 PM 57.4 °F - 35.6 °F 44% 30.26 in 10.0 mi NNW 15.0 mph 25.3 mph N/A   Clear
12:55 PM 58.1 °F - 35.6 °F 43% 30.25 in 10.0 mi WNW 11.5 mph 21.9 mph N/A   Clear
1:15 PM 59.2 °F - 33.6 °F 38% 30.23 in 10.0 mi West 10.4 mph 21.9 mph N/A   Clear
1:35 PM 60.4 °F - 36.3 °F 41% 30.22 in 10.0 mi NNW 10.4 mph 18.4 mph N/A   Clear
1:55 PM 59.9 °F - 33.4 °F 37% 30.22 in 10.0 mi NW 12.7 mph 27.6 mph N/A   Clear
2:15 PM 61.3 °F - 37.2 °F 41% 30.22 in 10.0 mi NNW 13.8 mph 21.9 mph N/A   Clear
2:35 PM 61.2 °F - 36.9 °F 40% 30.22 in 10.0 mi NW 11.5 mph 23.0 mph N/A   Clear
2:55 PM 61.2 °F - 36.3 °F 40% 30.22 in 10.0 mi NNW 11.5 mph 21.9 mph N/A   Clear
3:15 PM 62.2 °F - 37.9 °F 41% 30.22 in 10.0 mi WNW 11.5 mph 21.9 mph N/A   Scattered Clouds
3:35 PM 61.9 °F - 37.9 °F 41% 30.22 in 10.0 mi NNW 12.7 mph 23.0 mph N/A   Scattered Clouds
3:55 PM 61.9 °F - 37.2 °F 40% 30.22 in 10.0 mi NW 11.5 mph 21.9 mph N/A   Scattered Clouds
4:15 PM 62.2 °F - 37.2 °F 39% 30.22 in 10.0 mi NW 15.0 mph 21.9 mph N/A   Scattered Clouds
4:35 PM 62.1 °F - 36.5 °F 39% 30.21 in 10.0 mi NW 13.8 mph 23.0 mph N/A   Scattered Clouds
4:55 PM 62.4 °F - 37.0 °F 39% 30.20 in 10.0 mi WNW 16.1 mph 23.0 mph N/A   Scattered Clouds
5:15 PM 61.7 °F - 35.8 °F 38% 30.20 in 10.0 mi NW 18.4 mph 24.2 mph N/A   Scattered Clouds
5:35 PM 61.7 °F - 36.0 °F 38% 30.20 in 10.0 mi WNW 13.8 mph 21.9 mph N/A   Scattered Clouds
5:55 PM 61.5 °F - 36.1 °F 39% 30.20 in 10.0 mi WNW 12.7 mph 20.7 mph N/A   Scattered Clouds
6:15 PM 61.0 °F - 36.5 °F 40% 30.19 in 10.0 mi WNW 13.8 mph 20.7 mph N/A   Scattered Clouds
6:35 PM 61.0 °F - 36.1 °F 40% 30.20 in 10.0 mi WNW 16.1 mph 23.0 mph N/A   Clear
6:55 PM 60.6 °F - 35.8 °F 40% 30.20 in 10.0 mi NW 12.7 mph 19.6 mph N/A   Clear
7:15 PM 59.4 °F - 35.1 °F 40% 30.21 in 10.0 mi WNW 10.4 mph 26.5 mph N/A   Clear
7:35 PM 59.2 °F - 35.8 °F 42% 30.21 in 10.0 mi NW 11.5 mph - N/A   Clear
7:55 PM 58.3 °F - 36.3 °F 44% 30.21 in 10.0 mi NW 10.4 mph 16.1 mph N/A   Clear
8:15 PM 58.1 °F - 36.1 °F 44% 30.21 in 10.0 mi West 9.2 mph 16.1 mph N/A   Clear
8:35 PM 56.1 °F - 37.2 °F 49% 30.20 in 10.0 mi NW 5.8 mph - N/A   Clear
8:55 PM 55.0 °F - 37.4 °F 51% 30.20 in 10.0 mi NW 5.8 mph - N/A   Clear
9:15 PM 53.1 °F - 38.5 °F 58% 30.20 in 10.0 mi WNW 6.9 mph - N/A   Clear
9:35 PM 53.1 °F - 37.6 °F 56% 30.21 in 10.0 mi NW 6.9 mph - N/A   Clear
9:55 PM 53.1 °F - 37.2 °F 55% 30.22 in 10.0 mi WNW 6.9 mph - N/A   Clear
10:15 PM 53.4 °F - 36.9 °F 53% 30.22 in 10.0 mi NNW 6.9 mph - N/A   Clear
10:35 PM 52.9 °F - 36.1 °F 53% 30.22 in 10.0 mi NW 4.6 mph - N/A   Clear
10:55 PM 47.7 °F - 38.7 °F 71% 30.22 in 10.0 mi Calm Calm - N/A   Clear
11:15 PM 46.2 °F 45.0 °F 39.0 °F 76% 30.23 in 10.0 mi East 3.5 mph - N/A   Clear
11:35 PM 46.4 °F - 38.7 °F 74% 30.23 in 10.0 mi Calm Calm - N/A   Clear
11:55 PM 47.1 °F - 40.5 °F 78% 30.24 in 10.0 mi Calm Calm - N/A   Clear